Home > Weather > Ålesund > Past weeks

Flag for Norway Past Weather in Ålesund, Norway — Yesterday and Last 2 Weeks

Now
59 °F

Partly sunny.


Feels Like: 56 °F
Forecast: 56 / 60 °F
Wind: 14 mph from Southwest

Location: Alesund / Vigra

Current Time: Jul 30, 2016 at 8:57:34 PM

Latest Report: Jul 30, 2016 at 8:20 PM


Visibility: N/A

Pressure: 29.65 "Hg

Humidity: 72%

Dew Point: 50 °F

Location of ÅlesundLocation

Past Weather in Ålesund — Graph

°F

Ålesund Temperature Yesterday

Maximum temperature yesterday: 63 °F (at 11:50 AM)
Minimum temperature yesterday: 54 °F (at 1:20 AM)
Average temperature yesterday: 58 °F

High & Low Weather Summary for the Past Weeks

 TemperatureHumidityPressure
High82 °F (Jul 21, 4:20 PM)100% (Jul 20, 1:50 AM)30.12 "Hg (Jul 20, 1:50 AM)
Low52 °F (Jul 19, 1:50 AM)45% (Jul 21, 4:20 PM)29.65 "Hg (Jul 16, 8:50 AM)
Average60 °F84%29.89 "Hg
* Reported Jul 15 7:20 PM — Jul 30 7:20 PM, Ålesund, Weather by CustomWeather, © 2016

Note: Actual official high and low records may vary slightly from our data, if they occured in-between our weather recording intervals... More about our weather records

Advertising

Ålesund Weather History for the Previous 24 Hours

Scroll right to see more
 ConditionsComfort  
Time TempWeatherWind HumidityBarometerVisibility
7:20 PM
Sat, Jul 30
59 °FPartly sunny.No wind72%29.65 "HgN/A
6:50 PM61 °FPartly sunny.3 mph72%29.65 "HgN/A
6:20 PM59 °FPartly sunny.5 mph82%29.65 "HgN/A
5:20 PM61 °FBroken clouds.2 mph77%29.65 "HgN/A
4:50 PM59 °FLight rain. Broken clouds.5 mph77%29.65 "HgN/A
4:20 PM61 °FPartly sunny.3 mph72%29.65 "HgN/A
3:50 PM63 °FScattered clouds.5 mph68%29.65 "HgN/A
3:20 PM61 °FScattered clouds.3 mph72%29.65 "HgN/A
2:50 PM61 °FLight rain. Broken clouds.5 mph72%29.65 "HgN/A
2:20 PM61 °FScattered clouds.7 mph72%29.65 "HgN/A
1:50 PM61 °FScattered clouds.5 mph68%29.65 "HgN/A
1:20 PM63 °FScattered showers. Partly sunny.7 mph68%29.65 "HgN/A
12:50 PM63 °FScattered clouds.5 mph59%29.65 "HgN/A
12:20 PM64 °FBroken clouds.5 mph64%29.65 "HgN/A
11:50 AM61 °FBroken clouds.3 mph72%29.65 "HgN/A
11:20 AM61 °FScattered clouds.2 mph68%29.65 "HgN/A
10:50 AM63 °FPartly sunny.5 mph64%29.65 "HgN/A
10:20 AM61 °FScattered clouds.2 mph68%29.65 "HgN/A
9:50 AM61 °FScattered clouds.6 mph68%29.65 "HgN/A
9:20 AM59 °FScattered clouds.3 mph77%29.65 "HgN/A
8:50 AM57 °FScattered clouds.3 mph82%29.65 "HgN/A
8:20 AM57 °FScattered clouds.5 mph88%29.65 "HgN/A
7:50 AM55 °FScattered clouds.5 mph94%29.65 "HgN/A
7:20 AM54 °FScattered clouds.6 mph94%29.65 "HgN/A
6:50 AM54 °FPartly sunny.3 mph94%29.65 "HgN/A
6:20 AM52 °FBroken clouds.3 mph100%29.65 "HgN/A
5:50 AM52 °FPartly cloudy.3 mph100%29.65 "HgN/A
5:20 AM54 °FOvercast.3 mph94%29.65 "HgN/A
4:50 AM52 °FPartly cloudy.3 mph100%29.68 "HgN/A
4:20 AM54 °FPassing clouds.2 mph94%29.68 "HgN/A
3:50 AM54 °FLight rain. Passing clouds.No wind94%29.68 "HgN/A
3:20 AM54 °FLight rain. Mostly cloudy.1 mph94%29.68 "HgN/A
2:50 AM54 °FPartly cloudy.No wind94%29.68 "Hg3 mi
2:20 AM54 °FDrizzle. Overcast.3 mph94%29.68 "Hg3 mi
1:50 AM54 °FLight rain. Overcast.3 mph94%29.68 "HgN/A
1:20 AM54 °FDrizzle. Overcast.3 mph94%29.68 "HgN/A
12:50 AM54 °FPassing clouds.3 mph94%29.68 "HgN/A
12:20 AM54 °FDrizzle. Overcast.2 mph94%29.68 "HgN/A
11:50 PM
Fri, Jul 29
55 °FLight rain. Passing clouds.3 mph94%29.68 "Hg6 mi
11:20 PM55 °FLight rain. Broken clouds.3 mph94%29.68 "HgN/A
10:50 PM55 °FSprinkles. Broken clouds.2 mph94%29.68 "Hg6 mi
10:20 PM55 °FSprinkles. Broken clouds.3 mph94%29.68 "HgN/A
9:50 PM55 °FDrizzle. Broken clouds.3 mph94%29.68 "HgN/A
9:20 PM55 °FLight rain. Partly sunny.6 mph94%29.68 "HgN/A
8:50 PM55 °FLight rain. Partly sunny.3 mph94%29.68 "HgN/A
8:20 PM55 °FDrizzle. Broken clouds.5 mph88%29.68 "HgN/A
Weather by CustomWeather, © 2016

See weather overviewHow to use our weather pages